If you wish to contribute or participate in the discussions about articles you are invited to join SKYbrary as a registered user

 Actions

Ahvaz International Airport

From SKYbrary Wiki

OIAW
Airport
ICAO: OIAW – IATA: AWZ
Summary
Name Ahvaz International Airport
Region Middle East
Territory Iran IR.gif
Location Ahvaz, Khuzestan
Serving Ahvas
Elevation 20.117 m
66 ft20.117 m
Coordinates 31° 20' 15.00" N, 48° 45' 37.00" E
Runways
Designator Length Width Surface ROPS
12/30 3398 m11,148.294 ft
45 m147.638 ft
ASP yes/yes


METAR
Observation OIAW 040300Z 06002KT 7000 NSC 31/13 Q0997
Station Ahwaz
Date/Time 04 July 2020 03:00:00
Wind direction 60°
Wind speed 02 kts
Lowest cloud amount nil significant cloud
Temperature 31°C
Dew point 13°C
Humidity 33%
QNH 997 hPa
Weather condition n/a

Ahvaz (or Ahwaz) airport serves the city of Ahvaz, west Iran.

Climatology

Hot Desert Climate (Köppen climate classification BWh)

Maps

Terrain

Loading map...

Airport Layout

Loading map...


Accidents & Serious Incidents at or in vicinity of OIAW

None on SKYbrary